Showing default

COSMOS 158, 2801

Orbit data source: Space-Track

COSMOS 158, 2801 is a payload satellite owned by OKB-10 (CIS) in LEO that was launched on Mon, 15 May 1967 UTC via a KOSMOS 11K65M launch vehicle from the Plesetsk Missile And Space Complex (PKMTR). Payload-class satellites include a variety of spacecraft equipped with specific instruments for various scientific and technological missions. These include communications satellites like Starlink; space stations such as the ISS; scientific satellites like the Hubble; Earth observation satellites from companies like Planet Labs, Umbra, and HawkEye 360; GPS; miniature CubeSats for education and research; and military/defense satellites.

Loading next visibility...
Identifier
2801, 1967-045A
Orbit
LEO
Country
Flag of CISCIS
Related business
Manufacturer
OKB-10
Mission
Spacecraft
Bus & Motor
KAUR-1 11F617, Unknown motor
Mass
800 kg wet, 800 kg dry
Launch date (UTC)
1967-05-15 (59 years ago)
Launch vehicle
KOSMOS 11K65M
Launch site
Plesetsk Missile And Space Complex (PKMTR)
Object type
Payload
Rocket body
Debris
Shape & HBR
CYL + ANT, 8.5 m
Radar Cross Section
Large (>1 m²)

Expand to show TLE details & history
Last TLE update: 23 hours ago

TLE from 23 hours ago
0 COSMOS 158
1 02801U 67045A   26207.86823072  .00000033  00000-0  19537-4 0  9991
2 02801  74.0417 352.1242 0057207 191.2259 168.7623 14.36944630102124
Epoch: 2026-07-26T20:50Z
TLE epoch observation values (Epoch: 2026-07-26T20:50:15.134Z)
Latitude
-0.00003°
Longitude
95.00115°
Altitude
811.34 km
Speed
7.427 km/s
True Right ascension
23h 28m 29s
True Declination
0° 00' 00"
Sunlit
Object was in full shadow at epoch
Visualization orbit readout
Latitude
Unknown
Longitude
Unknown
Altitude
Unknown
Speed
Unknown
Apparent Right ascension
Unknown
Apparent Declination
Unknown
Sunlit
N/A
Visualization observer readout
Local Sidereal Time
09:27:31
Azimuth
Unknown
Elevation
Unknown
Doppler factor
Unknown
Orbital elements
Apogee altitude
807.104 km
Perigee altitude
725.363 km
Semi-major axis
7,144.371 km
Eccentricity
0.00572
Inclination
74.0417°
RAAN
352.1242°
Arg. of periapsis
191.2259°
True anomaly
168.88916°
Mean anomaly
168.7623°
Eccentric anomaly
168.82582°
Mean motion
3.59416 °/min
Orbital period
100.16 mins
BSTAR
0.000019537
Loading maneuver chart data...
Computing Atmospheric mass density...
Loading historical data...
Loading historical data...
Loading historical data...
Loading historical data...
Loading historical data...
Loading historical data...
Loading historical data...
Other satellites on launch #45 in the year 1967 (1967-05-15 UTC)

Documentation

Showing up to 5 results
|